Wetbulb
53.43 53.75 53.59 53.54 53.60 53.28 53.38 53.60 53.73 53.94 53.95 53.89 54.31 54.75 55.26 55.09 54.52 48.70 42.34 46.53 50.35 55.19 56.85 54.57 51.43 49.61 49.17 46.10 44.56 42.17 34.00 31.29 33.59 36.49 37.51 42.24 43.27 47.12 51.32 58.85 65.29 65.28 66.37 67.69 68.73
53.19 53.22 53.18 53.44 53.46 52.97 53.37 53.49 53.24 53.31 53.89 54.58 54.62 54.46 55.05 54.83 48.75 44.30 50.50 54.86 56.04 57.59 51.60 48.95 46.49 47.24 42.02 44.16 43.84 38.22 30.81 34.28 39.73 40.06 37.88 42.05 43.92 47.47 47.62 62.45 64.32 65.11 67.33 68.10 69.28
53.02 53.22 53.23 53.10 53.14 52.86 53.45 53.47 53.53 53.59 53.75 54.21 54.41 54.39 54.58 53.88 43.48 41.51 54.69 57.61 58.45 58.67 52.99 50.25 48.96 45.20 38.44 40.26 41.90 37.49 33.51 39.62 40.78 42.53 43.32 43.08 43.62 48.65 46.33 55.42 63.56 61.47 65.07 66.03 67.46
52.73 53.17 52.65 52.33 52.68 52.87 52.70 53.20 53.39 53.51 53.53 53.95 53.91 54.28 54.54 50.33 32.43 49.00 60.02 58.94 57.86 56.20 53.49 50.32 46.04 38.99 36.03 36.29 40.91 36.89 41.92 42.29 40.96 43.03 41.88 42.59 44.93 45.33 45.96 46.79 64.92 66.49 66.69 65.93 66.23
52.20 52.12 52.32 52.54 52.68 53.07 53.25 53.74 54.18 53.90 53.38 53.67 54.12 54.39 51.53 43.10 41.12 49.96 55.71 54.35 51.11 53.32 50.29 46.25 40.32 37.82 34.28 36.90 39.35 38.73 41.63 44.73 44.63 42.91 42.79 44.37 43.89 44.34 45.34 49.01 50.95 66.71 65.86 65.38 65.74
51.48 51.64 52.17 52.50 52.69 52.63 52.96 53.44 53.89 54.00 53.96 53.64 53.99 54.26 48.35 39.26 48.92 50.06 50.21 50.17 48.59 46.11 47.48 45.19 42.82 42.28 38.15 37.12 37.39 40.71 41.57 42.91 43.20 43.38 42.87 40.88 43.32 44.32 46.53 49.67 55.42 65.14 64.46 65.28 65.44
51.83 51.91 52.16 52.08 52.47 52.64 52.91 53.61 53.71 53.75 54.19 53.73 54.11 52.33 47.50 43.19 49.98 49.83 49.21 46.99 47.53 48.01 44.64 45.80 46.87 43.40 41.22 40.53 43.06 44.43 39.87 41.94 42.24 43.19 42.67 43.20 41.30 42.53 47.64 47.97 49.74 64.74 64.61 65.15 65.35
52.01 51.93 52.09 52.39 52.66 52.64 53.51 53.53 53.73 54.19 53.95 53.92 54.60 51.56 41.84 49.93 49.75 48.50 48.10 47.61 49.38 48.62 47.46 47.09 46.49 43.87 43.18 43.90 43.11 40.33 37.04 33.23 39.78 43.63 44.58 43.49 37.48 43.15 46.02 46.62 53.08 62.86 64.80 64.31 65.91
51.85 52.43 51.99 52.28 52.50 52.93 53.40 53.49 54.45 54.06 53.43 53.26 49.46 44.57 38.45 50.56 46.69 50.51 49.38 46.53 47.88 48.40 46.85 49.79 46.60 42.08 42.41 36.59 33.96 36.22 31.31 34.16 38.95 43.69 42.91 42.39 37.06 44.04 45.94 47.70 58.03 63.41 62.56 63.83 64.33
52.05 52.41 52.68 52.61 52.82 53.07 53.40 52.91 53.66 53.67 53.09 52.37 50.52 42.55 43.58 44.20 49.19 50.37 49.62 48.90 45.84 44.65 42.39 41.03 39.48 36.62 35.54 33.70 26.16 30.61 31.82 34.27 36.93 40.97 43.31 37.97 38.59 42.59 44.56 49.79 59.88 60.79 61.66 62.66 63.70
52.22 52.37 52.35 53.03 53.28 53.34 50.95 46.56 42.52 40.52 43.99 41.34 41.89 42.71 44.54 48.67 51.03 48.26 49.75 47.02 45.13 40.71 33.37 36.30 31.81 29.99 33.28 36.46 37.93 37.65 36.83 36.91 39.51 42.97 39.37 39.41 38.07 42.05 43.61 46.36 56.10 60.04 60.03 61.50 61.27
51.95 52.11 52.76 53.32 53.30 52.70 49.55 45.48 46.60 45.00 38.65 44.38 44.18 44.52 47.04 47.99 42.27 46.16 49.48 41.48 39.02 33.20 35.10 31.82 28.81 35.24 39.53 39.24 38.00 37.28 36.32 36.35 41.01 43.87 39.16 36.95 39.44 42.34 43.12 43.44 52.56 57.28 58.79 57.43 59.59
51.95 52.40 52.65 53.32 52.93 48.71 46.12 48.73 50.44 46.83 36.78 40.82 44.06 43.15 43.74 45.43 41.62 42.27 45.59 42.57 38.37 34.86 34.10 29.70 33.23 38.99 37.89 37.06 35.38 35.62 35.57 36.94 37.70 42.29 41.54 37.93 36.07 39.51 43.11 43.77 45.22 53.73 60.85 59.41 60.42
51.76 52.47 52.68 52.52 48.15 46.63 45.91 48.45 48.28 45.46 29.41 38.85 42.04 45.97 47.57 45.21 40.04 47.51 47.36 43.55 38.81 35.14 35.61 33.49 37.92 36.95 34.68 34.37 36.25 30.99 38.90 40.45 39.97 38.44 30.56 39.42 29.33 37.07 40.20 41.74 43.55 46.64 53.63 59.31 60.06
52.07 52.45 52.49 51.99 45.23 44.57 47.74 46.59 45.64 42.40 19.66 40.71 43.96 51.42 47.98 43.38 43.29 43.47 47.11 42.96 36.77 37.17 35.98 32.03 34.56 33.43 32.70 34.11 37.76 33.49 41.75 39.88 40.57 37.92 34.27 34.50 31.96 38.34 39.57 38.63 41.36 44.01 54.46 60.23 61.88
51.87 52.32 52.30 48.83 45.15 47.30 47.65 46.28 43.56 29.16 22.60 37.16 43.29 42.23 41.48 42.40 42.46 44.96 44.66 45.07 43.31 38.40 37.62 35.64 40.54 38.23 35.99 38.26 38.37 41.39 38.50 39.38 40.03 36.39 27.20 34.13 33.68 32.39 37.16 41.16 40.02 42.50 50.92 61.57 62.53
51.69 51.91 49.63 49.59 44.95 48.20 47.01 42.79 29.34 27.57 39.48 36.78 38.32 41.49 38.99 37.92 40.14 41.36 39.87 37.87 34.20 30.24 29.13 34.00 34.92 38.94 40.59 34.80 37.52 36.66 36.68 30.82 29.29 28.21 25.89 36.07 33.56 34.64 42.39 42.44 43.51 43.79 48.81 60.98 64.34
50.61 50.22 49.71 50.23 47.14 48.49 44.42 35.89 28.62 35.83 36.90 41.78 40.80 39.43 35.36 39.36 38.09 37.93 38.44 35.56 37.13 35.44 30.80 27.92 23.42 35.15 40.14 36.04 32.66 34.52 35.43 32.11 25.98 26.02 27.17 35.69 31.94 36.55 43.28 44.70 46.11 46.26 48.91 58.51 63.21
49.22 46.71 47.68 50.16 49.48 48.10 39.58 29.41 34.19 37.05 40.40 40.36 39.17 34.09 35.68 38.72 36.89 35.27 34.89 34.90 37.63 37.04 29.82 28.25 29.02 38.55 40.22 41.02 39.04 35.97 33.32 38.47 30.98 31.24 27.34 30.48 34.94 41.24 43.41 43.81 44.79 44.95 48.72 55.17 59.65
42.76 45.25 46.43 49.51 49.57 43.84 36.81 35.14 38.40 43.51 43.37 41.02 33.62 36.86 32.77 36.04 35.06 35.48 33.00 37.65 37.52 38.00 36.62 34.74 27.04 37.35 39.80 41.55 40.96 37.99 41.28 33.74 30.32 22.96 23.65 28.27 31.63 33.84 39.59 42.30 43.54 43.13 45.10 52.82 58.71
43.04 42.37 46.85 47.76 47.43 40.10 29.48 33.64 39.26 45.08 44.59 39.70 35.69 34.66 36.01 35.68 36.81 34.69 34.40 38.05 40.51 38.44 38.59 36.16 31.83 32.57 39.10 36.14 34.87 36.11 33.61 37.29 32.09 30.23 24.81 24.22 30.44 38.48 40.98 42.70 42.86 45.42 55.20 57.45 59.62
39.14 35.95 46.56 46.59 36.65 34.19 30.43 36.44 41.88 42.04 45.36 42.81 39.50 34.65 34.74 36.71 36.31 36.61 35.53 37.80 42.30 40.42 35.04 37.33 32.73 30.25 34.46 40.48 43.10 39.89 39.32 36.01 29.64 28.59 30.36 29.18 29.98 48.73 41.82 43.32 47.51 54.43 56.78 58.84 60.51
37.67 38.45 45.03 44.31 29.53 30.78 35.67 37.99 40.21 40.19 41.68 41.07 39.89 38.95 39.99 36.35 34.76 37.75 39.32 42.53 41.38 40.38 38.29 38.74 32.21 29.20 31.81 36.66 39.08 34.58 38.94 39.53 35.50 33.87 31.93 28.84 31.93 50.13 42.49 45.74 54.12 54.77 56.17 56.82 56.76
37.33 32.87 37.29 37.21 37.00 31.96 32.45 34.42 34.55 41.30 41.70 42.19 42.40 43.47 41.03 35.04 37.93 37.07 38.90 43.28 43.79 44.62 46.84 42.19 35.08 32.99 24.71 33.22 37.13 34.39 38.29 40.19 35.30 29.94 33.04 35.30 40.86 39.99 48.56 51.65 53.98 54.84 55.77 55.28 54.58
37.58 33.65 35.98 30.10 33.16 34.67 32.87 34.82 33.90 34.51 40.23 40.72 39.35 39.77 39.02 33.53 34.81 36.28 40.97 41.91 43.43 45.61 41.63 38.84 32.06 36.19 37.26 39.26 40.08 38.77 39.31 39.01 35.80 36.02 36.27 43.55 42.92 47.11 49.85 52.14 53.79 55.09 54.05 52.88 51.76
37.07 36.36 37.55 36.54 35.97 33.25 33.71 33.05 33.71 36.12 36.91 36.44 35.54 38.84 39.13 39.05 38.61 37.52 40.41 41.45 39.98 41.72 37.83 37.13 31.70 36.90 35.87 39.13 39.84 38.82 40.75 39.75 39.57 45.36 45.68 46.73 46.49 52.32 54.18 54.83 53.69 52.49 51.77 50.30 49.25
39.22 39.94 39.58 35.50 33.38 31.20 30.49 33.59 34.90 37.03 38.48 41.27 39.42 38.08 37.84 39.62 42.91 43.41 44.27 45.70 45.40 40.02 35.40 35.02 32.20 33.92 32.85 38.88 38.25 34.06 37.65 40.81 41.42 44.32 47.34 43.66 47.68 52.88 52.13 52.08 51.30 50.03 49.49 48.16 47.89
MSLP
1020.21 1019.75 1019.25 1018.82 1018.44 1018.00 1017.62 1017.21 1016.99 1016.67 1016.30 1015.95 1015.61 1015.34 1014.93 1014.56 1014.21 1014.05 1013.38 1011.32 1011.08 1010.51 1010.60 1010.50 1010.20 1010.26 1010.09 1010.40 1010.34 1010.49 1011.15 1010.20 1009.02 1008.19 1007.11 1005.97 1005.51 1004.33 1003.58 1003.58 1003.61 1003.62 1003.51 1003.54 1004.78
1020.13 1019.61 1019.08 1018.61 1018.16 1017.67 1017.32 1017.03 1016.62 1016.33 1016.01 1015.65 1015.35 1015.09 1014.82 1014.52 1014.13 1013.16 1011.01 1010.61 1010.67 1010.55 1010.69 1010.73 1010.66 1010.50 1010.51 1010.37 1010.26 1010.42 1010.31 1009.38 1008.22 1007.38 1006.57 1006.42 1005.35 1004.42 1003.82 1004.02 1003.59 1004.08 1003.84 1004.50 1004.60
1019.95 1019.37 1018.76 1018.35 1017.87 1017.41 1017.02 1016.62 1016.22 1015.95 1015.71 1015.34 1015.11 1014.92 1014.81 1014.56 1014.05 1011.50 1010.17 1010.53 1010.51 1010.31 1010.45 1010.65 1010.85 1010.88 1011.00 1010.67 1010.31 1009.86 1009.55 1008.78 1007.76 1007.11 1006.85 1006.67 1005.98 1004.75 1004.29 1004.30 1003.23 1003.63 1004.32 1004.85 1005.21
1019.79 1019.18 1018.60 1018.09 1017.59 1017.08 1016.61 1016.20 1015.80 1015.55 1015.32 1015.06 1014.82 1014.69 1014.64 1014.68 1013.53 1010.47 1009.82 1009.96 1009.97 1009.43 1010.12 1010.52 1011.04 1011.19 1011.24 1011.01 1010.47 1010.04 1009.11 1008.67 1007.80 1007.16 1007.01 1006.76 1006.29 1005.11 1004.21 1003.92 1003.09 1003.29 1003.13 1003.68 1005.49
1019.52 1019.01 1018.44 1017.81 1017.23 1016.73 1016.25 1015.87 1015.42 1015.12 1014.93 1014.80 1014.64 1014.52 1014.56 1014.34 1012.96 1010.65 1010.45 1010.35 1010.11 1009.80 1010.00 1010.46 1010.90 1011.25 1011.19 1010.86 1010.66 1010.05 1009.25 1008.50 1007.95 1007.42 1006.97 1006.96 1006.37 1005.57 1004.19 1003.68 1003.45 1003.54 1004.39 1003.85 1004.94
1019.36 1018.78 1018.19 1017.55 1016.97 1016.37 1015.86 1015.49 1015.08 1014.75 1014.52 1014.44 1014.40 1014.36 1014.42 1013.52 1011.16 1010.71 1010.72 1010.66 1010.65 1010.43 1010.20 1010.32 1010.50 1010.78 1010.93 1010.76 1010.68 1009.88 1009.60 1008.60 1007.85 1007.55 1007.33 1006.78 1006.01 1005.44 1003.31 1003.20 1002.94 1002.81 1003.68 1003.80 1004.39
1019.09 1018.48 1017.82 1017.18 1016.57 1015.91 1015.39 1014.98 1014.55 1014.24 1014.10 1014.10 1014.11 1014.26 1013.83 1012.19 1010.90 1010.75 1010.95 1010.95 1010.60 1010.57 1010.36 1009.97 1010.19 1010.52 1010.69 1010.67 1010.25 1009.82 1009.57 1008.55 1007.68 1007.52 1007.16 1006.19 1005.58 1003.40 1002.80 1003.59 1003.40 1003.31 1002.92 1003.96 1004.69
1018.75 1018.18 1017.56 1016.86 1016.16 1015.49 1014.92 1014.43 1013.92 1013.60 1013.64 1013.75 1013.76 1014.08 1013.13 1011.19 1010.98 1010.82 1010.59 1010.56 1010.19 1010.21 1010.21 1009.60 1009.79 1010.41 1010.62 1010.52 1010.35 1010.06 1009.53 1008.68 1007.23 1007.05 1006.57 1006.31 1004.16 1003.06 1002.83 1002.95 1002.65 1002.72 1003.63 1004.80 1005.20
1018.43 1017.80 1017.24 1016.57 1015.90 1015.23 1014.43 1013.87 1013.28 1012.99 1013.38 1013.56 1013.81 1013.95 1012.43 1010.91 1010.58 1009.52 1009.85 1010.12 1009.85 1009.73 1009.52 1009.29 1009.79 1010.45 1010.70 1011.13 1011.28 1010.52 1009.73 1008.53 1007.37 1006.23 1006.13 1005.40 1003.63 1002.73 1002.48 1002.78 1002.40 1002.57 1003.69 1004.70 1005.77
1018.08 1017.41 1016.77 1016.16 1015.65 1014.98 1014.37 1013.76 1013.41 1013.31 1013.62 1013.78 1013.72 1014.10 1012.00 1010.62 1009.74 1009.27 1009.68 1009.81 1009.64 1009.48 1009.51 1009.65 1010.31 1010.82 1011.41 1011.69 1011.29 1010.81 1010.08 1008.80 1007.40 1006.36 1005.46 1004.73 1004.02 1002.94 1002.33 1002.23 1002.56 1003.09 1004.16 1004.73 1005.63
1017.80 1017.02 1016.25 1015.80 1015.30 1014.80 1014.46 1014.16 1013.82 1013.64 1013.47 1012.97 1012.57 1012.21 1011.03 1010.25 1009.29 1009.18 1009.40 1009.57 1009.57 1009.83 1010.34 1010.44 1010.96 1011.37 1011.83 1011.90 1011.81 1011.17 1010.56 1009.61 1007.98 1006.32 1005.73 1004.61 1004.74 1003.55 1002.75 1002.65 1002.81 1003.48 1004.62 1005.46 1006.42
1017.50 1016.66 1015.84 1015.25 1014.78 1014.44 1014.40 1014.21 1013.57 1013.54 1013.09 1011.91 1011.63 1011.45 1010.66 1010.75 1010.27 1009.10 1009.04 1009.75 1010.12 1010.50 1010.77 1011.35 1011.29 1011.54 1011.65 1011.77 1011.73 1011.47 1010.88 1009.75 1008.14 1006.49 1005.89 1004.76 1004.31 1003.42 1003.11 1002.81 1002.82 1003.22 1004.63 1005.55 1007.06
1017.10 1016.22 1015.44 1014.72 1014.36 1014.37 1014.22 1013.60 1013.08 1013.31 1013.61 1011.46 1010.68 1010.24 1009.76 1010.30 1010.10 1009.08 1009.01 1009.31 1009.90 1010.69 1011.03 1011.31 1011.20 1011.08 1011.32 1011.42 1011.49 1011.08 1010.52 1009.79 1008.80 1007.19 1005.44 1004.79 1004.44 1003.90 1003.11 1002.83 1002.67 1003.05 1004.20 1005.31 1005.91
1016.72 1015.69 1015.02 1014.31 1014.16 1014.22 1013.83 1013.36 1013.21 1013.42 1013.44 1011.44 1009.92 1009.19 1009.32 1009.55 1009.44 1008.52 1008.31 1008.85 1009.58 1010.26 1010.98 1011.11 1010.79 1010.77 1010.94 1010.84 1011.05 1010.61 1009.92 1009.54 1008.87 1008.08 1006.25 1004.54 1004.53 1003.70 1003.00 1003.03 1002.78 1003.23 1004.41 1005.00 1006.13
1016.20 1015.38 1014.81 1014.45 1014.35 1014.01 1013.47 1013.30 1013.47 1013.76 1013.07 1010.92 1009.42 1008.54 1009.02 1009.51 1008.96 1007.80 1007.66 1008.23 1009.13 1010.07 1010.94 1010.67 1010.30 1010.41 1010.14 1009.71 1010.30 1010.00 1009.63 1009.42 1008.87 1008.23 1007.24 1004.74 1004.62 1003.00 1002.73 1003.20 1003.09 1003.36 1003.59 1004.66 1005.29
1015.49 1014.79 1014.37 1014.45 1014.31 1013.13 1013.00 1013.19 1013.64 1014.17 1012.71 1011.06 1009.76 1009.17 1009.32 1009.29 1008.97 1008.26 1007.85 1008.10 1008.64 1010.01 1010.42 1010.20 1009.93 1009.99 1009.54 1009.50 1009.82 1009.87 1009.88 1009.37 1008.88 1008.40 1007.10 1004.61 1003.77 1002.99 1002.48 1002.00 1002.76 1003.37 1003.45 1004.10 1004.73
1014.90 1013.97 1014.07 1013.63 1013.20 1012.65 1012.97 1013.56 1014.01 1014.18 1013.17 1011.77 1010.55 1010.02 1010.01 1009.57 1009.07 1008.59 1008.66 1008.97 1009.32 1010.17 1010.42 1009.94 1009.36 1009.12 1009.13 1009.45 1009.63 1010.06 1010.36 1009.47 1008.95 1007.84 1005.85 1003.85 1003.62 1001.68 1000.62 1001.34 1001.86 1002.94 1003.73 1004.27 1004.32
1014.25 1013.39 1013.24 1012.70 1012.61 1012.77 1013.22 1013.79 1014.33 1014.23 1013.70 1012.40 1011.38 1010.67 1010.59 1010.35 1010.19 1009.88 1009.19 1009.37 1009.74 1010.40 1010.09 1009.81 1008.68 1007.87 1008.02 1008.55 1008.98 1009.84 1010.35 1009.13 1007.71 1006.72 1005.19 1003.53 1002.46 1001.01 1000.04 1000.62 1001.06 1002.01 1002.93 1004.26 1004.71
1014.16 1013.48 1013.29 1012.40 1012.41 1012.82 1013.77 1014.47 1015.34 1014.41 1013.68 1012.35 1011.89 1011.60 1010.98 1010.90 1010.87 1010.41 1009.46 1009.01 1008.91 1009.64 1010.48 1009.61 1008.33 1007.05 1006.80 1007.51 1008.32 1010.06 1010.28 1009.16 1008.15 1005.98 1004.82 1003.41 1001.60 1001.12 1000.21 1000.87 1001.45 1002.26 1003.17 1004.42 1005.00
1015.56 1014.80 1013.51 1012.48 1012.30 1013.09 1014.28 1014.82 1014.40 1013.89 1012.97 1012.62 1012.56 1012.51 1011.92 1011.24 1010.91 1010.38 1009.46 1008.30 1008.24 1008.65 1009.11 1009.18 1008.46 1007.47 1006.92 1007.48 1008.18 1008.50 1009.18 1009.13 1007.69 1005.81 1004.68 1003.11 1001.61 1001.06 1001.01 1001.14 1001.71 1002.60 1003.72 1005.07 1005.52
1015.83 1015.16 1013.26 1012.64 1012.77 1014.14 1015.26 1015.05 1013.87 1012.69 1012.59 1012.95 1012.79 1012.92 1012.25 1011.59 1010.70 1009.67 1008.78 1007.74 1007.57 1007.89 1008.56 1008.54 1008.76 1008.80 1007.53 1007.33 1007.58 1008.69 1009.10 1008.12 1006.19 1004.55 1003.56 1003.01 1001.68 999.98 1000.18 1000.90 1001.72 1003.13 1004.13 1004.96 1005.73
1017.32 1016.19 1013.85 1012.90 1014.49 1015.94 1016.04 1015.23 1013.70 1012.64 1012.46 1012.64 1013.01 1012.97 1012.53 1011.66 1010.56 1009.40 1008.30 1007.10 1006.49 1007.02 1007.81 1007.89 1008.44 1008.31 1007.97 1007.05 1006.78 1007.34 1007.29 1006.53 1005.40 1004.58 1003.49 1002.50 1001.87 1000.32 1000.21 1000.95 1002.06 1003.70 1004.67 1005.63 1006.01
1018.64 1017.33 1014.63 1014.12 1016.57 1017.36 1016.45 1015.31 1014.20 1012.99 1012.42 1012.08 1012.28 1012.30 1011.86 1011.69 1010.57 1009.29 1007.62 1006.26 1006.06 1006.41 1007.01 1007.38 1008.12 1008.17 1008.08 1007.94 1008.07 1008.08 1007.26 1006.17 1004.46 1004.12 1003.04 1002.22 1001.68 1001.00 1000.98 1001.50 1002.50 1003.78 1005.23 1006.23 1007.19
1019.14 1018.77 1017.43 1017.36 1017.82 1018.15 1017.70 1016.07 1014.76 1013.05 1012.40 1011.83 1011.55 1011.23 1010.85 1011.12 1010.46 1009.23 1007.74 1006.45 1006.11 1006.00 1006.15 1006.80 1007.57 1007.44 1006.93 1006.72 1006.70 1007.37 1005.91 1004.32 1003.51 1003.22 1002.59 1001.87 1001.86 1001.79 1001.82 1002.48 1003.38 1004.15 1005.53 1006.83 1008.05
1020.21 1020.80 1020.44 1019.56 1018.64 1018.64 1018.20 1016.62 1015.54 1014.34 1012.85 1011.92 1011.35 1011.00 1010.81 1010.28 1009.92 1008.78 1007.28 1006.36 1006.10 1005.98 1006.57 1006.78 1006.95 1006.95 1006.35 1005.96 1006.04 1005.42 1003.60 1002.41 1002.24 1001.94 1001.97 1001.87 1001.88 1002.14 1001.96 1002.36 1003.82 1004.84 1006.08 1007.32 1008.81
1021.49 1021.59 1020.97 1020.34 1019.57 1019.02 1018.10 1017.15 1016.18 1014.79 1013.91 1012.10 1011.77 1010.69 1010.18 1009.73 1009.18 1008.36 1007.60 1006.82 1006.53 1006.59 1006.86 1006.91 1007.02 1006.49 1005.94 1005.85 1005.50 1004.16 1003.12 1002.11 1001.41 1001.18 1001.41 1001.45 1002.35 1002.58 1003.05 1003.68 1004.54 1005.56 1006.37 1007.59 1009.27
1021.84 1021.65 1021.50 1020.40 1019.87 1019.38 1018.46 1017.66 1016.30 1015.57 1013.38 1012.25 1011.45 1010.53 1009.40 1008.66 1008.02 1007.16 1006.75 1006.61 1006.67 1007.10 1007.17 1007.33 1007.18 1007.13 1006.29 1005.44 1005.23 1004.69 1001.99 1000.90 1000.52 1000.61 1000.62 1001.61 1002.18 1002.91 1003.97 1004.76 1005.30 1006.29 1006.93 1007.97 1009.65
Wind_Speed
19 19 19 19 19 18 18 17 17 17 16 15 16 16 16 16 18 8 7 12 9 14 9 6 3 5 3 4 4 4 2 6 6 7 3 4 4 2 6 5 4 11 5 11 21
20 20 21 20 19 20 19 18 19 17 17 16 15 15 15 17 13 10 14 12 13 11 4 1 2 7 2 5 4 5 4 7 6 5 2 5 3 5 5 1 2 2 5 19 25
20 20 21 21 21 21 19 19 18 17 17 16 14 14 14 12 7 7 5 10 10 13 8 3 1 2 2 2 4 4 5 8 5 3 4 5 3 4 4 5 6 14 19 21 18
21 21 22 22 22 22 20 20 18 17 16 16 15 12 12 2 5 4 7 17 18 5 5 5 3 3 1 3 4 4 5 6 3 3 3 4 5 7 6 8 6 12 26 21 20
22 22 22 23 23 22 21 20 19 16 15 15 13 11 5 3 11 8 11 13 9 2 8 6 4 4 3 2 7 4 3 5 5 7 9 4 7 7 14 10 10 11 15 22 23
23 23 24 23 23 22 20 19 17 16 14 12 12 9 3 9 4 8 4 9 4 4 3 4 6 7 3 2 5 3 6 6 4 5 5 1 6 6 10 7 8 22 23 24 25
23 23 23 24 23 22 20 18 16 16 13 10 10 4 5 17 2 3 5 4 3 2 3 4 4 3 4 4 2 5 7 8 6 4 6 8 8 21 18 4 7 21 25 17 16
24 23 23 22 21 22 22 21 20 15 8 6 8 2 7 4 6 8 2 4 8 7 5 8 7 7 4 4 6 4 2 4 4 11 7 8 19 5 7 6 12 26 22 9 4
25 22 22 21 21 22 22 21 16 1 4 4 2 3 10 9 5 7 6 3 3 6 5 7 6 5 2 2 5 3 3 6 4 10 7 15 7 9 7 6 11 20 17 13 10
25 22 21 20 20 19 19 18 3 8 5 4 2 1 5 2 5 10 5 3 2 2 4 4 4 3 2 4 6 5 3 3 8 6 17 7 8 10 4 10 13 17 14 15 15
26 23 21 20 19 14 9 4 4 3 2 7 5 5 10 8 5 2 3 3 1 4 3 3 1 4 4 4 3 10 10 7 7 7 5 14 1 13 8 3 8 12 14 14 14
26 25 23 21 18 10 4 1 1 4 8 9 13 12 14 4 6 4 7 4 3 4 2 4 5 4 4 4 6 8 8 12 13 14 6 4 15 11 6 5 11 12 13 13 13
25 24 23 21 19 4 2 1 3 2 2 8 5 4 4 8 5 7 8 5 6 5 5 7 6 6 10 6 7 8 10 9 8 13 6 4 1 5 6 4 6 8 19 15 22
26 25 21 22 1 3 3 1 1 4 3 6 2 2 2 3 6 7 7 7 2 8 4 5 6 12 8 12 9 10 7 13 11 7 4 8 5 7 6 7 7 8 12 17 16
25 23 18 9 3 2 2 3 4 5 3 9 2 2 12 6 3 4 5 5 8 7 6 7 2 4 12 15 10 6 4 8 8 9 7 4 3 11 8 6 7 8 9 15 19
29 24 15 2 1 6 4 5 4 6 5 8 3 15 12 10 7 5 2 1 4 5 2 6 4 3 3 9 11 3 4 8 6 2 4 9 9 4 8 13 5 6 9 12 15
30 25 7 1 4 3 4 4 6 6 7 10 12 14 13 5 6 5 8 11 5 4 5 3 8 6 6 2 3 7 4 5 6 5 7 8 5 8 17 12 10 11 15 13 16
31 19 3 4 3 3 4 7 8 8 7 8 11 17 4 7 2 7 3 4 8 11 2 2 7 11 10 12 6 4 8 3 4 7 5 5 9 6 11 10 12 13 16 15 16
23 4 4 3 6 3 6 6 3 5 9 9 13 5 4 1 2 4 4 4 9 12 6 3 6 2 22 10 10 8 6 6 4 5 3 5 4 3 11 10 8 11 14 14 11
3 4 4 5 4 5 6 1 4 3 8 2 4 4 5 6 4 3 3 4 5 9 11 3 4 7 11 9 3 5 7 8 5 7 6 3 4 8 10 13 10 10 10 11 14
4 4 4 6 4 7 3 5 6 6 2 3 2 5 6 5 4 5 5 4 6 10 15 5 2 2 7 7 10 4 2 10 3 4 6 5 5 6 13 10 14 11 14 17 18
4 3 5 3 6 2 3 6 7 6 3 2 0 4 4 5 5 5 4 4 7 8 9 5 4 2 2 4 7 3 4 6 1 2 0 5 4 4 11 12 17 16 18 17 20
3 4 4 6 4 4 8 7 4 6 5 2 3 8 7 5 5 5 4 3 7 7 6 6 2 2 2 1 6 4 11 12 4 2 4 7 6 4 7 13 20 23 20 19 21
4 6 6 6 1 1 5 6 8 9 5 5 5 4 6 3 5 7 4 2 3 3 6 6 4 6 5 2 9 5 18 11 6 2 2 2 2 5 15 20 19 25 23 23 20
5 1 1 6 5 7 3 5 7 7 5 5 4 11 11 3 4 5 6 3 2 3 3 3 5 4 5 7 8 10 15 3 6 6 3 7 5 8 16 24 22 23 25 24 21
3 4 3 4 6 7 5 5 6 10 4 9 6 16 12 5 6 15 16 3 3 2 3 0 3 2 2 3 7 9 11 9 5 5 8 15 11 11 15 19 23 24 24 24 20
3 2 1 4 5 4 3 4 10 10 10 9 13 13 10 8 15 19 12 6 6 1 2 2 0 2 4 4 8 9 10 4 4 6 13 14 9 18 17 19 23 21 21 24 21
Wind_Direction
342 337 334 332 330 327 323 322 320 320 316 315 315 315 318 325 320 314 251 223 200 251 304 310 340 338 163 201 191 127 172 222 213 189 205 28 82 213 227 173 197 182 157 142 134
337 335 332 330 326 324 321 322 319 318 314 315 312 315 325 327 318 261 245 248 249 253 281 258 317 5 319 195 194 163 190 216 201 192 222 46 74 324 3 338 324 136 118 147 144
336 333 330 329 326 324 321 317 313 311 311 309 309 314 320 332 317 256 251 228 262 235 225 207 301 28 313 279 223 194 206 226 268 299 308 128 345 291 307 233 168 203 153 158 153
336 333 331 329 327 323 319 315 314 310 306 304 309 306 310 5 298 259 185 343 339 283 163 169 177 161 150 237 293 265 218 245 273 326 328 75 343 311 250 227 208 219 167 151 163
336 333 329 327 325 321 318 316 312 305 301 300 300 301 317 249 253 281 330 337 346 93 155 150 123 154 178 195 338 235 273 280 288 277 275 140 255 243 273 271 263 191 190 166 176
335 333 330 327 324 322 319 315 309 306 299 295 294 301 246 265 242 259 323 341 357 338 108 152 182 194 240 236 162 302 283 271 270 254 276 228 254 205 252 166 287 173 189 179 186
333 332 330 328 326 321 320 313 309 300 291 284 280 275 250 251 257 273 314 285 250 306 255 214 207 162 186 285 221 257 309 288 228 169 232 180 262 231 242 254 241 197 192 187 184
335 334 331 329 324 321 319 317 310 292 272 255 255 241 255 261 260 270 192 262 246 242 237 255 208 196 171 292 352 305 222 248 254 168 233 141 257 259 235 195 254 197 183 146 123
336 334 333 328 325 322 319 319 322 122 180 183 166 125 262 299 264 265 158 212 179 218 221 255 133 173 121 90 7 311 246 218 324 192 184 191 251 251 226 230 208 175 167 145 120
337 333 328 324 324 320 318 318 310 97 137 169 272 237 266 17 314 304 153 194 189 113 5 57 64 130 57 113 220 209 219 280 195 219 206 216 237 288 307 167 183 172 166 150 141
337 333 327 323 322 321 334 354 359 354 205 204 202 251 288 322 293 349 138 125 348 76 160 306 106 230 207 230 302 306 310 317 317 231 210 224 194 257 284 116 151 153 151 150 132
337 332 326 323 321 327 121 41 115 246 315 232 248 246 262 302 311 285 139 153 127 200 137 3 256 247 253 230 255 270 288 286 291 265 228 188 214 231 230 216 178 163 148 131 133
335 327 326 323 320 129 175 338 149 132 305 294 207 209 266 155 235 260 168 189 172 197 192 183 218 184 216 240 256 248 232 259 256 323 269 134 276 195 227 245 166 197 155 150 149
331 327 329 328 92 307 266 127 201 100 48 324 300 68 53 182 234 223 211 155 176 202 199 221 237 237 217 233 220 256 254 241 259 296 241 168 212 216 192 189 170 157 152 156 165
330 326 326 312 273 322 223 127 101 60 19 332 301 207 338 248 322 287 190 159 186 181 136 240 247 226 216 221 211 242 254 246 252 265 332 223 95 203 143 164 189 174 157 159 166
329 326 330 110 210 234 114 90 63 49 330 336 312 328 326 304 268 282 235 97 151 143 276 235 159 200 251 220 225 267 282 250 225 170 251 234 166 234 168 186 159 138 157 173 160
328 322 308 212 257 113 117 51 39 52 333 321 319 319 324 267 292 300 235 234 187 166 233 279 229 191 167 158 193 196 84 184 188 189 219 195 151 214 198 146 156 155 164 177 168
327 320 188 221 205 120 55 44 54 319 300 297 310 318 288 5 339 321 297 205 224 233 11 259 316 177 171 203 171 153 153 273 124 168 180 180 198 243 158 150 155 151 164 162 173
326 335 340 280 167 86 62 45 306 303 287 291 312 322 301 6 308 328 267 218 193 178 166 242 253 185 172 159 145 140 177 227 298 246 119 190 246 69 135 133 147 142 147 164 154
353 346 306 341 119 60 60 231 221 199 270 254 317 326 314 314 312 253 289 236 161 170 194 203 303 344 140 122 12 170 74 228 219 150 168 246 150 169 147 161 161 136 117 121 117
34 29 278 348 59 41 103 252 274 269 0 243 218 279 271 298 309 305 264 245 215 188 187 166 152 242 216 202 180 125 207 224 251 173 163 131 221 217 163 172 151 116 120 128 120
0 19 315 25 43 38 333 289 269 292 214 219 234 242 265 289 294 287 267 255 162 150 178 198 155 178 276 353 118 112 243 279 227 115 255 133 270 42 156 149 118 122 123 125 119
0 279 325 60 67 318 305 300 296 301 281 244 251 215 191 285 294 268 271 291 139 167 173 186 310 262 96 165 99 104 253 241 225 129 230 124 227 55 116 124 131 130 131 124 119
34 354 328 31 83 278 323 283 324 302 272 287 249 254 317 214 300 302 286 234 207 158 202 132 170 203 196 146 120 199 233 225 154 73 221 209 92 88 128 128 131 132 133 131 125
24 316 196 310 329 332 274 290 322 331 303 313 301 334 331 229 269 261 286 293 141 180 115 163 243 200 228 54 134 221 251 350 185 216 187 171 130 144 146 140 135 132 131 124 123
46 14 348 283 299 318 1 313 302 325 268 293 323 307 317 270 223 303 302 244 323 17 156 311 265 318 89 103 200 246 273 297 204 104 109 113 103 124 125 129 137 140 132 124 124
322 324 85 281 324 0 270 298 287 318 285 265 310 303 311 253 303 277 267 240 266 295 207 145 205 205 34 126 108 272 252 192 89 84 143 149 143 130 137 140 143 134 133 130 128